GW6394 Weather Reports


time (UTC)temp
C
wind
direction
speed
KPH
gust
KPH
rain 1hr
cm
rain 24hr
cm
rain mn
cm
humidity
%
barometer
mb
20260510083503 8 226 0.0 1.6 0.00 0.00 0.00 96 1010.4
20260510083003 8 226 0.0 1.6 0.00 0.00 0.00 96 1010.4
20260510082503 8 226 0.0 1.6 0.00 0.00 0.00 96 1010.5
20260510082002 8 226 0.0 1.6 0.00 0.00 0.00 96 1010.5
20260510081504 8 226 0.0 1.6 0.00 0.00 0.00 96 1010.7
20260510081003 8 226 0.0 1.6 0.00 0.00 0.00 96 1010.5
20260510080507 8 226 0.0 1.6 0.00 0.00 0.00 95 1010.5
20260510080008 8 226 0.0 1.6 0.00 0.00 0.00 95 1010.5
20260510075507 8 226 0.0 1.6 0.00 0.00 0.00 95 1010.4
20260510075003 8 226 0.0 1.6 0.00 0.00 0.00 95 1010.5
20260510074503 8 226 0.0 1.6 0.00 0.00 0.00 95 1010.6
20260510074002 8 226 0.0 1.6 0.00 0.00 0.00 95 1010.7
20260510073506 8 226 0.0 1.6 0.00 0.00 0.00 95 1010.7
20260510073005 8 226 0.0 1.6 0.00 0.00 0.00 95 1011.0
20260510072503 8 230 0.0 1.6 0.00 0.00 0.00 95 1011.0
20260510072003 8 238 0.0 3.2 0.00 0.00 0.00 95 1011.1
20260510071505 8 263 0.0 3.2 0.00 0.00 0.00 95 1011.1
20260510071003 8 211 0.0 3.2 0.00 0.00 0.00 95 1011.2
20260510070502 8 223 1.6 3.2 0.00 0.00 0.00 95 1011.2
20260510070004 8 248 0.0 3.2 0.00 0.00 0.00 95 1011.2
20260510065504 8 293 1.6 4.8 0.00 0.00 0.00 95 1011.2
20260510065003 8 252 0.0 4.8 0.00 0.00 0.00 95 1011.2
20260510064503 8 246 1.6 3.2 0.00 0.00 0.00 95 1011.1
20260510064003 8 214 0.0 6.4 0.00 0.00 0.00 95 1011.2
20260510063503 8 235 1.6 6.4 0.00 0.00 0.00 95 1011.3
20260510063007 8 238 0.0 4.8 0.00 0.00 0.00 95 1011.3
20260510062503 8 274 1.6 4.8 0.00 0.00 0.00 95 1011.2
20260510062001 8 215 0.0 4.8 0.00 0.00 0.00 95 1010.8
20260510061507 8 205 0.0 3.2 0.00 0.00 0.00 95 1010.7
20260510061006 8 225 1.6 3.2 0.00 0.00 0.00 95 1010.8
20260510060503 8 226 0.0 1.6 0.00 0.00 0.00 95 1010.8
20260510060006 8 211 0.0 3.2 0.00 0.00 0.00 95 1010.9
20260510055503 8 219 0.0 3.2 0.00 0.00 0.00 95 1010.9
20260510055003 9 173 0.0 4.8 0.00 0.00 0.00 95 1010.9
20260510054513 9 198 0.0 4.8 0.00 0.00 0.00 95 1010.9
20260510054003 9 208 1.6 3.2 0.00 0.00 0.00 95 1010.9
20260510053503 9 221 0.0 1.6 0.00 0.00 0.00 96 1011.0
20260510053003 9 200 0.0 1.6 0.00 0.00 0.00 96 1011.0
20260510052504 9 170 1.6 1.6 0.00 0.00 0.00 96 1011.1
20260510052006 9 208 0.0 1.6 0.00 0.00 0.00 96 1011.0
20260510051515 9 229 0.0 1.6 0.00 0.00 0.00 96 1011.0
20260510051002 9 229 0.0 3.2 0.00 0.00 0.00 96 1011.0
20260510050503 9 228 0.0 3.2 0.00 0.00 0.00 96 1010.9
20260510050007 8 146 0.0 1.6 0.00 0.00 0.00 96 1011.0
20260510045503 8 183 0.0 1.6 0.00 0.00 0.00 95 1010.9
20260510045003 8 127 0.0 1.6 0.00 0.00 0.00 95 1010.9
20260510044516 8 127 0.0 1.6 0.00 0.00 0.00 95 1010.8
20260510044003 8 127 0.0 3.2 0.00 0.00 0.00 95 1010.7
20260510043503 8 148 0.0 3.2 0.00 0.00 0.00 95 1010.6
20260510043006 8 92 0.0 1.6 0.00 0.00 0.00 95 1010.5
20260510042504 8 92 0.0 1.6 0.00 0.00 0.00 95 1010.4
20260510042005 8 92 0.0 1.6 0.00 0.00 0.00 95 1010.6
20260510041504 8 205 0.0 1.6 0.00 0.00 0.00 95 1010.5
20260510041003 8 238 0.0 1.6 0.00 0.00 0.00 95 1010.6
20260510040503 7 238 0.0 1.6 0.00 0.00 0.00 95 1010.6
20260510040008 8 238 0.0 1.6 0.00 0.00 0.00 95 1010.5
20260510035503 8 238 0.0 1.6 0.00 0.00 0.00 95 1010.5
20260510035004 8 238 0.0 1.6 0.00 0.00 0.00 95 1010.5
20260510034509 8 238 0.0 1.6 0.00 0.00 0.00 94 1010.4
20260510034004 8 238 0.0 1.6 0.00 0.00 0.00 94 1010.5
20260510033503 8 243 0.0 1.6 0.00 0.00 0.00 94 1010.5
20260510033008 8 243 0.0 1.6 0.00 0.00 0.00 94 1010.4
20260510032503 8 243 0.0 1.6 0.00 0.00 0.00 94 1010.3
20260510032003 8 218 0.0 1.6 0.00 0.00 0.00 94 1010.3
20260510031506 8 237 0.0 1.6 0.00 0.00 0.00 94 1010.4
20260510031003 8 255 0.0 1.6 0.00 0.00 0.00 94 1010.4
20260510030503 8 255 0.0 1.6 0.00 0.00 0.00 94 1010.4
20260510030009 8 229 0.0 1.6 0.00 0.00 0.00 94 1010.3
20260510025504 8 229 0.0 1.6 0.00 0.00 0.00 94 1010.3
20260510025003 8 229 0.0 1.6 0.00 0.00 0.00 94 1010.2
20260510024509 8 229 0.0 1.6 0.00 0.00 0.00 94 1010.3
20260510024003 8 229 0.0 1.6 0.00 0.00 0.00 94 1010.3
20260510023504 8 164 0.0 1.6 0.00 0.00 0.00 94 1010.3
20260510023008 8 143 0.0 1.6 0.00 0.00 0.00 94 1010.3
20260510022504 8 143 0.0 1.6 0.00 0.00 0.00 94 1010.3
20260510022003 8 143 0.0 1.6 0.00 0.00 0.00 93 1010.4
20260510021509 8 143 0.0 1.6 0.00 0.00 0.00 94 1010.5
20260510021007 8 143 0.0 1.6 0.00 0.00 0.00 94 1010.4
20260510020503 8 143 0.0 1.6 0.00 0.00 0.00 94 1010.5
20260510020008 8 141 0.0 1.6 0.00 0.00 0.00 94 1010.4
20260510015506 8 150 0.0 1.6 0.00 0.00 0.00 94 1010.4
20260510015003 8 150 0.0 3.2 0.00 0.00 0.00 94 1010.4
20260510014519 8 135 0.0 3.2 0.00 0.00 0.00 94 1010.4
20260510014007 8 131 0.0 1.6 0.00 0.00 0.00 93 1010.3
20260510013504 8 131 0.0 1.6 0.00 0.00 0.00 92 1010.3
20260510013008 8 131 0.0 1.6 0.00 0.00 0.00 92 1010.1
20260510012504 8 131 0.0 1.6 0.00 0.00 0.00 92 1010.1
20260510012004 8 131 0.0 1.6 0.00 0.00 0.00 92 1010.1
20260510011512 8 131 0.0 1.6 0.00 0.00 0.00 92 1010.0
20260510011004 8 131 0.0 1.6 0.00 0.00 0.00 92 1010.1
20260510010507 8 226 0.0 1.6 0.00 0.00 0.00 92 1010.0
20260510010011 8 184 0.0 1.6 0.00 0.00 0.00 92 1010.0
20260510005502 8 155 0.0 1.6 0.00 0.00 0.00 91 1009.8
20260510005004 8 212 0.0 1.6 0.00 0.00 0.00 90 1009.8
20260510004511 9 212 0.0 1.6 0.00 0.00 0.00 90 1009.8
20260510004003 9 212 0.0 3.2 0.00 0.00 0.00 90 1009.8
20260510003503 9 223 0.0 3.2 0.00 0.00 0.00 90 1009.8
20260510003011 9 213 0.0 1.6 0.00 0.00 0.00 90 1009.8
20260510002504 9 203 0.0 1.6 0.00 0.00 0.00 90 1009.7
20260510002004 9 193 0.0 1.6 0.00 0.00 0.00 90 1009.6
20260510001512 10 173 0.0 1.6 0.00 0.00 0.00 90 1009.6
20260510001004 9 129 0.0 1.6 0.00 0.00 0.00 90 1009.5
20260510000504 10 128 0.0 1.6 0.00 0.00 0.00 89 1009.5
20260510000012 10 128 0.0 1.6 0.00 0.00 0.00 88 1009.3
20260509235503 10 128 0.0 1.6 0.00 0.00 0.00 88 1009.3
20260509235003 10 128 0.0 1.6 0.00 0.00 0.00 88 1009.2
20260509234513 10 128 0.0 1.6 0.00 0.00 0.00 87 1009.2
20260509234004 10 186 0.0 0.0 0.00 0.00 0.00 86 1009.1
20260509233504 10 186 0.0 0.0 0.00 0.00 0.00 86 1009.0
20260509233012 10 186 0.0 0.0 0.00 0.00 0.00 85 1009.1
20260509232508 11 186 0.0 1.6 0.00 0.00 0.00 84 1009.2
20260509232003 11 185 0.0 3.2 0.00 0.00 0.00 83 1009.2
20260509231525 11 164 0.0 3.2 0.00 0.00 0.00 84 1009.1
20260509231004 11 186 1.6 4.8 0.00 0.00 0.00 83 1009.0
20260509230504 11 193 1.6 4.8 0.00 0.00 0.00 83 1009.0
20260509230014 11 226 1.6 4.8 0.00 0.00 0.00 83 1009.1
20260509225504 11 192 0.0 4.8 0.00 0.00 0.00 82 1009.2
20260509225003 11 210 1.6 4.8 0.00 0.00 0.00 84 1009.2
20260509224516 11 96 0.0 4.8 0.00 0.00 0.00 83 1009.1
20260509224004 11 142 1.6 4.8 0.00 0.00 0.00 84 1009.2
20260509223504 11 160 1.6 4.8 0.00 0.00 0.00 84 1009.1
20260509223015 11 229 1.6 4.8 0.00 0.00 0.00 83 1009.1
20260509222503 11 194 1.6 3.2 0.00 0.00 0.00 84 1009.1
20260509222005 11 161 0.0 4.8 0.00 0.00 0.00 85 1009.1
20260509221528 11 219 0.0 4.8 0.00 0.00 0.00 85 1009.1
20260509221005 11 144 0.0 4.8 0.00 0.00 0.00 84 1009.1
20260509220504 11 158 1.6 4.8 0.00 0.00 0.00 84 1009.1
20260509220013 11 218 1.6 4.8 0.00 0.00 0.00 84 1009.2
20260509215504 11 161 0.0 9.7 0.00 0.00 0.00 85 1009.2
20260509215008 11 139 1.6 9.7 0.00 0.00 0.00 84 1009.2
20260509214517 11 257 1.6 6.4 0.00 0.00 0.00 85 1009.3
20260509214004 11 255 1.6 4.8 0.00 0.00 0.00 86 1009.3
20260509213504 11 222 0.0 9.7 0.00 0.00 0.00 87 1009.3
20260509213018 11 25 3.2 9.7 0.00 0.00 0.00 86 1009.3
20260509212508 11 281 1.6 8.0 0.00 0.00 0.00 87 1009.3
20260509212012 11 204 1.6 4.8 0.00 0.00 0.00 86 1009.4
20260509211514 11 268 0.0 3.2 0.00 0.00 0.00 88 1009.5
20260509211007 11 183 1.6 4.8 0.00 0.00 0.00 88 1009.4
20260509210504 11 181 1.6 4.8 0.00 0.00 0.00 88 1009.5
20260509210016 11 207 1.6 6.4 0.00 0.00 0.00 88 1009.4
20260509205504 10 129 1.6 6.4 0.00 0.00 0.00 88 1009.4
20260509205005 10 197 1.6 4.8 0.00 0.00 0.00 89 1009.5
20260509204518 10 197 1.6 4.8 0.00 0.00 0.00 89 1009.4
20260509204007 10 226 0.0 3.2 0.00 0.00 0.00 90 1009.4
20260509203508 10 199 1.6 3.2 0.00 0.00 0.00 90 1009.4
20260509203017 10 217 1.6 3.2 0.00 0.00 0.00 91 1009.4
20260509202508 10 211 0.0 3.2 0.00 0.00 0.00 91 1009.4
20260509202009 9 211 1.6 3.2 0.00 0.00 0.00 91 1009.4
20260509201519 9 214 0.0 4.8 0.00 0.00 0.00 90 1009.4
20260509201010 9 63 1.6 4.8 0.00 0.00 0.00 90 1009.4
20260509200504 9 231 1.6 4.8 0.00 0.00 0.00 90 1009.7
20260509200018 9 260 1.6 8.0 0.00 0.00 0.00 91 1009.7
20260509195506 9 176 0.0 8.0 0.00 0.00 0.00 91 1009.8
20260509195005 9 217 1.6 6.4 0.00 0.00 0.00 91 1009.9
20260509194520 9 264 0.0 4.8 0.00 0.00 0.00 91 1010.0
20260509194010 9 138 0.0 4.8 0.00 0.00 0.00 91 1010.1
20260509193507 9 205 1.6 4.8 0.00 0.00 0.00 90 1010.2
20260509193020 9 236 1.6 4.8 0.00 0.00 0.00 90 1010.2
20260509192507 9 224 0.0 3.2 0.00 0.00 0.00 91 1010.3
20260509192009 9 144 0.0 4.8 0.00 0.00 0.00 90 1010.3
20260509191521 9 203 1.6 4.8 0.00 0.00 0.00 90 1010.2
20260509191004 9 198 1.6 3.2 0.00 0.00 0.00 91 1010.6
20260509190507 8 154 1.6 4.8 0.00 0.00 0.00 91 1010.5
20260509190035 9 188 1.6 4.8 0.00 0.00 0.00 91 1010.5
20260509185508 8 252 1.6 4.8 0.00 0.00 0.00 90 1010.6
20260509185006 8 261 1.6 6.4 0.00 0.00 0.00 90 1010.6
20260509184528 8 209 1.6 6.4 0.00 0.00 0.00 90 1010.7
20260509184011 8 253 1.6 4.8 0.00 0.00 0.00 90 1010.8
20260509183507 8 217 1.6 4.8 0.00 0.00 0.00 90 1010.8
20260509183027 8 154 1.6 6.4 0.00 0.00 0.00 90 1010.8
20260509182509 8 217 1.6 6.4 0.00 0.00 0.00 90 1010.8
20260509182008 8 193 1.6 3.2 0.00 0.00 0.00 90 1010.9
20260509181521 8 217 1.6 4.8 0.00 0.00 0.00 90 1010.8
20260509181011 8 166 0.0 4.8 0.00 0.00 0.00 90 1010.8
20260509180508 9 47 1.6 4.8 0.00 0.00 0.00 91 1010.8
20260509180021 9 58 1.6 3.2 0.00 0.00 0.00 91 1010.8
20260509175508 9 184 0.0 3.2 0.00 0.00 0.00 91 1010.8
20260509175004 9 187 0.0 4.8 0.00 0.00 0.00 91 1010.8
20260509174504 9 195 1.6 4.8 0.00 0.00 0.00 91 1010.8
20260509174008 8 150 1.6 4.8 0.00 0.00 0.00 91 1011.0
20260509173505 9 123 1.6 4.8 0.00 0.00 0.00 91 1011.1
20260509173011 9 156 0.0 4.8 0.00 0.00 0.00 91 1011.1
20260509172503 9 138 1.6 3.2 0.00 0.00 0.00 91 1010.9
20260509172004 9 146 0.0 3.2 0.00 0.00 0.00 90 1010.9
20260509171514 9 156 0.0 3.2 0.00 0.00 0.00 90 1010.9
20260509171006 9 153 1.6 4.8 0.00 0.00 0.00 90 1010.8
20260509170504 10 139 0.0 4.8 0.00 0.00 0.00 90 1010.9
20260509170028 10 150 0.0 4.8 0.00 0.00 0.00 89 1010.9
20260509165507 9 207 0.0 4.8 0.00 0.00 0.00 90 1011.0
20260509165007 9 152 1.6 4.8 0.00 0.00 0.00 88 1011.0
20260509164522 9 143 1.6 4.8 0.00 0.00 0.00 89 1011.0
20260509164011 9 129 1.6 4.8 0.00 0.00 0.00 89 1011.0
20260509163504 10 138 0.0 3.2 0.00 0.00 0.00 89 1011.0
20260509163007 9 145 0.0 3.2 0.00 0.00 0.00 89 1011.0
20260509162503 9 64 0.0 3.2 0.00 0.00 0.00 89 1011.0
20260509162007 9 119 0.0 3.2 0.00 0.00 0.00 88 1011.0
20260509161512 10 124 0.0 3.2 0.00 0.00 0.00 89 1011.0
20260509161003 9 93 0.0 1.6 0.00 0.00 0.00 89 1011.1
20260509160503 9 127 0.0 3.2 0.00 0.00 0.00 89 1011.1
20260509160017 9 153 0.0 3.2 0.00 0.00 0.00 89 1011.3
20260509155506 9 147 1.6 3.2 0.00 0.00 0.00 91 1011.3
20260509155011 9 128 0.0 3.2 0.00 0.00 0.00 89 1011.4
20260509154520 9 91 0.0 1.6 0.00 0.00 0.00 91 1011.4
20260509154007 9 142 0.0 1.6 0.00 0.00 0.00 91 1011.3
20260509153508 8 85 0.0 1.6 0.00 0.00 0.00 90 1011.2
20260509153024 9 85 0.0 1.6 0.00 0.00 0.00 90 1011.1
20260509152508 8 85 0.0 1.6 0.00 0.00 0.00 90 1011.0
20260509152010 8 84 0.0 1.6 0.00 0.00 0.00 89 1011.0
20260509151508 8 84 0.0 3.2 0.00 0.00 0.00 90 1011.1
20260509151003 8 85 0.0 3.2 0.00 0.00 0.00 89 1011.2
20260509150503 8 84 0.0 3.2 0.00 0.00 0.00 88 1011.3
20260509150010 8 123 0.0 1.6 0.00 0.00 0.00 90 1011.4
20260509145503 8 123 0.0 1.6 0.00 0.00 0.00 89 1011.4
20260509145003 8 62 0.0 1.6 0.00 0.00 0.00 91 1011.4
20260509144517 8 63 0.0 1.6 0.00 0.00 0.00 91 1011.5
20260509144007 8 63 0.0 1.6 0.00 0.00 0.00 90 1011.6
20260509143507 8 63 0.0 1.6 0.00 0.00 0.00 91 1011.6
20260509143020 8 58 0.0 1.6 0.00 0.00 0.00 91 1011.6
20260509142507 8 57 0.0 1.6 0.00 0.00 0.00 90 1011.5
20260509142012 8 50 0.0 1.6 0.00 0.00 0.00 91 1011.5
20260509141530 8 50 0.0 1.6 0.00 0.00 0.00 91 1011.4
20260509141010 8 50 0.0 1.6 0.00 0.00 0.00 90 1011.3
20260509140509 8 49 0.0 1.6 0.00 0.00 0.00 90 1011.2
20260509140008 8 48 0.0 1.6 0.00 0.00 0.00 89 1011.0
20260509135506 8 47 0.0 1.6 0.00 0.00 0.00 89 1011.0
20260509135004 8 47 0.0 1.6 0.00 0.00 0.00 89 1011.0
20260509134512 8 47 0.0 1.6 0.00 0.00 0.00 88 1011.0
20260509134004 8 48 0.0 1.6 0.00 0.00 0.00 88 1011.0
20260509133504 8 32 0.0 1.6 0.00 0.00 0.00 88 1010.9
20260509133017 8 32 0.0 1.6 0.00 0.00 0.00 87 1011.0
20260509132507 8 30 0.0 1.6 0.00 0.00 0.00 87 1011.1
20260509132008 8 79 0.0 1.6 0.00 0.00 0.00 86 1011.2
20260509131522 8 43 0.0 1.6 0.00 0.00 0.00 87 1011.1
20260509131009 8 43 0.0 1.6 0.00 0.00 0.00 87 1011.1
20260509130509 8 43 0.0 1.6 0.00 0.00 0.00 86 1011.3
20260509130041 8 41 0.0 1.6 0.00 0.00 0.00 85 1011.3
20260509125509 8 37 0.0 1.6 0.00 0.00 0.00 85 1011.3
20260509125012 8 65 0.0 1.6 0.00 0.00 0.00 84 1011.4
20260509124529 8 65 0.0 1.6 0.00 0.00 0.00 85 1011.4
20260509124004 8 66 0.0 1.6 0.00 0.00 0.00 84 1011.4
20260509123504 8 60 0.0 1.6 0.00 0.00 0.00 85 1011.4
20260509123021 8 61 0.0 1.6 0.00 0.00 0.00 82 1011.6
20260509122504 8 60 0.0 1.6 0.00 0.00 0.00 81 1011.5
20260509122007 8 71 0.0 1.6 0.00 0.00 0.00 82 1011.4
20260509121523 8 71 0.0 1.6 0.00 0.00 0.00 80 1011.5
20260509121006 8 71 0.0 1.6 0.00 0.00 0.00 83 1011.6
20260509120510 8 71 0.0 1.6 0.00 0.00 0.00 84 1011.5
20260509120021 8 71 0.0 3.2 0.00 0.00 0.00 84 1011.4
20260509115508 8 71 1.6 3.2 0.00 0.00 0.00 83 1011.3
20260509115008 8 85 0.0 3.2 0.00 0.00 0.00 82 1011.4
20260509114526 8 191 1.6 3.2 0.00 0.00 0.00 85 1011.4
20260509114008 8 45 0.0 1.6 0.00 0.00 0.00 85 1011.1
20260509113511 8 330 0.0 3.2 0.00 0.00 0.00 83 1011.1
20260509113026 8 330 0.0 3.2 0.00 0.00 0.00 84 1011.1
20260509112504 7 271 1.6 3.2 0.00 0.00 0.00 85 1011.2
20260509112004 7 221 0.0 1.6 0.00 0.00 0.00 87 1011.2
20260509111515 7 221 0.0 1.6 0.00 0.00 0.00 87 1011.3
20260509111005 7 68 0.0 1.6 0.00 0.00 0.00 86 1011.1
20260509110506 7 66 0.0 1.6 0.00 0.00 0.00 84 1011.1
20260509110023 7 66 0.0 1.6 0.00 0.00 0.00 85 1011.1
20260509105506 7 67 0.0 3.2 0.00 0.00 0.00 85 1011.1
20260509105010 7 65 1.6 3.2 0.00 0.00 0.00 87 1011.0
20260509104524 7 68 0.0 1.6 0.00 0.00 0.00 87 1011.1
20260509104008 7 69 1.6 1.6 0.00 0.00 0.00 87 1011.1
20260509103509 7 69 0.0 1.6 0.00 0.00 0.00 87 1011.1
20260509103029 7 68 0.0 1.6 0.00 0.00 0.00 88 1011.1
20260509102506 7 70 0.0 3.2 0.00 0.00 0.00 87 1011.2
20260509102011 7 66 0.0 3.2 0.00 0.00 0.00 87 1011.2
20260509101526 7 136 0.0 1.6 0.00 0.00 0.00 86 1011.3
20260509101008 7 136 0.0 1.6 0.00 0.00 0.00 86 1011.3
20260509100504 7 136 0.0 1.6 0.00 0.00 0.00 85 1011.3
20260509100020 7 134 0.0 1.6 0.00 0.00 0.00 85 1011.2
20260509095505 7 134 0.0 1.6 0.00 0.00 0.00 86 1011.2
20260509095007 7 134 0.0 1.6 0.00 0.00 0.00 86 1011.2
20260509094522 7 134 0.0 1.6 0.00 0.00 0.00 86 1011.2
20260509094006 7 177 0.0 0.0 0.00 0.00 0.00 86 1011.2
20260509093507 7 178 0.0 0.0 0.00 0.00 0.00 86 1011.2
20260509093026 7 178 0.0 0.0 0.00 0.00 0.00 86 1011.2
20260509092510 7 178 0.0 0.0 0.00 0.00 0.00 87 1011.3
20260509092007 7 178 0.0 0.0 0.00 0.00 0.00 88 1011.3
20260509091529 7 178 0.0 0.0 0.00 0.00 0.00 88 1011.2
20260509091009 7 178 0.0 0.0 0.00 0.00 0.00 87 1011.3
20260509090509 7 178 0.0 0.0 0.00 0.00 0.00 87 1011.3
20260509090028 7 178 0.0 0.0 0.00 0.00 0.00 87 1011.4
20260509085509 7 178 0.0 0.0 0.00 0.00 0.00 87 1011.6
20260509085010 7 178 0.0 0.0 0.00 0.00 0.00 87 1011.5
20260509084516 7 178 0.0 0.0 0.00 0.00 0.00 87 1011.5
20260509084004 7 178 0.0 0.0 0.00 0.00 0.00 87 1011.6
20260509083511 7 178 0.0 0.0 0.00 0.00 0.00 87 1011.7